This demonstration page uses our WeatherBlox Daily Observations layout. Learn more.

Left ArrowRight Arrow

Hourly Observations for January 23, 2017

Temp ( °F °C ) Dew Point ( °F °C ) Humidity (%) Winds ( mph kmh ) Pressure ( in mb ) Visibility ( mi km ) Precip ( " mm )
12:15 am 00:15 Clear 30 -1.2 27 -3 88 88 Calm 29.97 1015 10 16 0.00 0.00
12:35 am 00:35 Clear 28 -2 26 -3.5 90 90 Calm 30.00 1016 10 16 0.00 0.00
12:55 am 00:55 Clear 28 -2.4 25 -3.7 91 91 Calm 30.00 1016 10 16 0.00 0.00
1:15 am 01:15 Clear 28 -2.2 26 -3.6 90 90 Calm 30.00 1016 10 16 0.00 0.00
1:35 am 01:35 Clear 29 -1.6 26 -3.1 90 90 Calm 30.00 1016 10 16 0.00 0.00
1:55 am 01:55 Clear 29 -1.7 26 -3.5 88 88 Calm 30.00 1016 10 16 0.00 0.00
2:15 am 02:15 Clear 28 -2.2 25 -3.9 88 88 Calm 29.97 1015 10 16 0.00 0.00
2:35 am 02:35 Clear 28 -2.5 25 -3.8 91 91 Calm 30.00 1016 10 16 0.00 0.00
2:55 am 02:55 Clear 28 -2.4 26 -3.6 92 92 Calm 29.97 1015 10 16 0.00 0.00
3:15 am 03:15 Clear 28 -2.5 25 -3.8 91 91 Calm 29.97 1015 10 16 0.00 0.00
3:35 am 03:35 Clear 28 -2.3 25 -3.7 90 90 Calm 29.97 1015 10 16 0.00 0.00
3:55 am 03:55 Clear 29 -1.9 26 -3.6 88 88 Calm 29.91 1013 10 16 0.00 0.00
4:15 am 04:15 Clear 28 -2.2 25 -3.7 90 90 Calm 29.94 1014 10 16 0.00 0.00
4:35 am 04:35 Clear 28 -2.4 26 -3.5 92 92 E 5 7 29.94 1014 10 16 0.00 0.00
4:55 am 04:55 Clear 28 -2.2 26 -3.6 90 90 Calm 29.94 1014 10 16 0.00 0.00
5:15 am 05:15 Clear 28 -2.3 25 -3.9 89 89 SSE 3 6 29.94 1014 10 16 0.00 0.00
5:35 am 05:35 Clear 28 -2.5 25 -3.9 90 90 SSE 3 6 29.94 1014 10 16 0.00 0.00
5:55 am 05:55 Clear 27 -2.8 23 -4.8 86 86 SE 6 9 29.94 1014 10 16 0.00 0.00
6:15 am 06:15 Mostly Cloudy 27 -2.8 24 -4.2 90 90 ESE 6 9 29.94 1014 10 16 0.00 0.00
6:35 am 06:35 Mostly Cloudy 29 -1.5 27 -3 90 90 ESE 8 13 29.91 1013 10 16 0.00 0.00
6:55 am 06:55 Cloudy 30 -1.1 27 -2.9 88 88 SE 6 9 29.91 1013 10 16 0.00 0.00
7:15 am 07:15 Cloudy 30 -1 28 -2.5 90 90 ESE 7 11 29.91 1013 10 16 0.00 0.00
7:35 am 07:35 Mostly Cloudy 30 -1.2 27 -2.8 89 89 SE 6 9 29.91 1013 10 16 0.00 0.00
7:55 am 07:55 Partly Cloudy 28 -2 26 -3.3 91 91 ESE 7 11 29.88 1012 10 16 0.00 0.00
8:15 am 08:15 Partly Cloudy 29 -1.6 27 -2.9 91 91 SE 8 13 29.88 1012 10 16 0.00 0.00
8:35 am 08:35 Mostly Cloudy 30 -1.2 27 -2.6 90 90 SE 9 15 29.88 1012 10 16 0.00 0.00
8:55 am 08:55 Partly Cloudy 30 -0.9 28 -2.4 90 90 ESE 10 17 29.88 1012 10 16 0.00 0.00
9:15 am 09:15 Sunny 32 0 29 -1.7 88 88 SE 9 15 29.88 1012 10 16 0.00 0.00
9:35 am 09:35 Partly Cloudy 33 0.5 30 -1.2 89 89 SSE 10 17 29.88 1012 10 16 0.00 0.00
9:55 am 09:55 Partly Cloudy 33 0.8 30 -1 88 88 SE 9 15 29.85 1011 10 16 0.00 0.00
10:15 am 10:15 Partly Cloudy 35 1.7 31 -0.5 86 86 SSE 15 24 29.85 1011 10 16 0.00 0.00
10:35 am 10:35 Partly Cloudy 36 2.4 31 -0.5 81 81 SE 14 22 29.85 1011 10 16 0.00 0.00
10:55 am 10:55 Sunny 38 3.3 32 -0.2 78 78 SE 13 20 29.85 1011 10 16 0.00 0.00
11:15 am 11:15 Sunny 40 4.2 32 -0.2 73 73 SE 12 19 29.83 1010 10 16 0.00 0.00
11:35 am 11:35 Sunny 41 5.1 32 -0.1 69 69 SSE 8 13 29.83 1010 10 16 0.00 0.00
11:55 am 11:55 Sunny 43 6 32 0 66 66 SSE 13 20 29.80 1009 10 16 0.00 0.00
12:15 pm 12:15 Sunny 44 6.7 32 0.1 63 63 SE 12 19 29.80 1009 10 16 0.00 0.00
12:35 pm 12:35 Sunny 45 7.2 32 -0.1 60 60 SSE 14 22 29.74 1007 10 16 0.00 0.00
12:55 pm 12:55 Sunny 45 7.1 32 0 61 61 SSE 15 24 29.74 1007 10 16 0.00 0.00
1:15 pm 13:15 Sunny 46 7.8 32 -0.2 57 57 SE 15 24 29.71 1006 10 16 0.00 0.00
1:35 pm 13:35 Sunny 46 7.6 32 -0.2 58 58 SE 13 20 29.71 1006 10 16 0.00 0.00
1:55 pm 13:55 Sunny 47 8.1 30 -1.2 52 52 SSE 13 20 29.68 1005 10 16 0.00 0.00
2:15 pm 14:15 Sunny 48 8.8 30 -1 51 51 SSE 17 28 29.68 1005 10 16 0.00 0.00
2:35 pm 14:35 Sunny 49 9.5 30 -1.2 48 48 SSE 18 30 29.65 1004 10 16 0.00 0.00
2:55 pm 14:55 Sunny 49 9.3 30 -1.1 49 49 SSE 16 26 29.62 1003 10 16 0.00 0.00
3:15 pm 15:15 Sunny 49 9.4 31 -0.4 51 51 SSE 13 20 29.62 1003 10 16 0.00 0.00
3:35 pm 15:35 Sunny 49 9.6 31 -0.6 49 49 SSE 14 22 29.62 1003 10 16 0.00 0.00
3:55 pm 15:55 Sunny 48 9.1 32 0 53 53 SSE 14 22 29.62 1003 10 16 0.00 0.00
4:15 pm 16:15 Sunny 50 10.2 30 -1.1 46 46 SSE 15 24 29.62 1003 10 16 0.00 0.00
4:35 pm 16:35 Sunny 50 9.8 30 -1.1 47 47 SSE 15 24 29.62 1003 10 16 0.00 0.00
4:55 pm 16:55 Sunny 49 9.3 31 -0.8 50 50 SSE 13 20 29.62 1003 10 16 0.00 0.00
5:15 pm 17:15 Sunny 47 8.3 31 -0.5 54 54 SE 10 17 29.65 1004 10 16 0.00 0.00
5:35 pm 17:35 Sunny 45 7 31 -0.5 59 59 SE 9 15 29.65 1004 10 16 0.00 0.00
5:55 pm 17:55 Clear 40 4.5 30 -0.9 68 68 ESE 8 13 29.68 1005 10 16 0.00 0.00
6:15 pm 18:15 Clear 38 3.1 30 -1 75 75 ESE 9 15 29.68 1005 10 16 0.00 0.00
6:35 pm 18:35 Clear 36 2.3 29 -1.4 77 77 ESE 8 13 29.74 1007 10 16 0.00 0.00
6:55 pm 18:55 Clear 35 1.6 29 -1.4 81 81 ESE 9 15 29.74 1007 10 16 0.00 0.00
7:15 pm 19:15 Clear 35 1.8 30 -1.2 81 81 E 9 15 29.74 1007 10 16 0.00 0.00
7:35 pm 19:35 Clear 34 1 31 -0.7 89 89 E 9 15 29.74 1007 10 16 0.00 0.00
7:55 pm 19:55 Clear 33 0.4 31 -0.7 92 92 E 9 15 29.74 1007 10 16 0.00 0.00
8:15 pm 20:15 Clear 33 0.5 31 -0.6 92 92 E 10 17 29.74 1007 10 16 0.00 0.00
8:35 pm 20:35 Clear 33 0.5 31 -0.5 93 93 E 10 17 29.74 1007 10 16 0.00 0.00
8:55 pm 20:55 Clear 32 0.1 31 -0.6 95 95 E 12 19 29.74 1007 7 11 0.00 0.00
9:15 pm 21:15 Mostly Cloudy 32 0.1 31 -0.5 96 96 E 10 17 29.74 1007 7 11 0.00 0.00
9:35 pm 21:35 Cloudy 32 0.1 31 -0.3 97 97 ESE 13 20 29.71 1006 7 11 0.00 0.00
9:55 pm 21:55 Mostly Cloudy 32 0.1 31 -0.6 95 95 ESE 12 19 29.71 1006 10 16 0.00 0.00
10:15 pm 22:15 Partly Cloudy 32 0 31 -0.7 95 95 ESE 13 20 29.71 1006 10 16 0.00 0.00
10:35 pm 22:35 Clear 32 0 30 -1 93 93 ESE 13 20 29.71 1006 7 11 0.00 0.00
10:55 pm 22:55 Partly Cloudy with Mist and Fog 32 -0.1 30 -1 94 94 E 13 20 29.71 1006 5 8 0.00 0.00
11:15 pm 23:15 Mostly Cloudy with Mist and Fog 31 -0.3 30 -1 95 95 E 14 22 29.71 1006 4 6 0.00 0.00
11:35 pm 23:35 Cloudy with Mist and Fog 32 -0.1 31 -0.7 96 96 E 14 22 29.71 1006 1 2 0.00 0.00
11:55 pm 23:55 Cloudy with Mist and Fog 32 0 31 -0.5 96 96 E 13 20 29.71 1006 2 3 0.00 0.00

Powered by AerisWeather